Weather History for Asheville, NC

Change the Weather History Date:

Monday, August 25, 2008

  Actual Average Record
Temperature  
Mean Temperature 72 °F 72 °F  
Max Temperature 76 °F 82 °F 92 °F (1998)
Min Temperature 67 °F 62 °F 50 °F (1952)
Degree Days  
Heating Degree Days 0 0  
Month to date heating degree days 0 0  
Since 1 June heating degree days 14  
Since 1 July heating degree days 1 0  
Cooling Degree Days 7 7  
Month to date cooling degree days 202 208  
Year to date cooling degree days 726 718  
Since 1 June cooling degree days 660  
Growing Degree Days 20 (Base 50)    
Moisture  
Dew Point 66 °F    
Average Humidity 85    
Maximum Humidity 100    
Minimum Humidity 69    
Precipitation  
Precipitation 0.96 in 0.15 in 1.90 in (1914)
Month to date precipitation 1.36 3.56  
Year to date precipitation 21.26 30.77  
Snow  
Snow 0.00 in 0.00 in 0.00 in ()
Month to date snowfall 0.0 0.0  
Since 1 June snowfall 0.0  
Since 1 July snowfall 0.0 0.0  
Snow Depth -    
Sea Level Pressure  
Sea Level Pressure 30.00 in    
Wind  
Wind Speed 1 mph (SE)    
Max Wind Speed 15 mph    
Max Gust Speed 18 mph    
Visibility 7 miles    
Events Rain    
T = Trace of Precipitation, MM = Missing Value Source: NWS Daily Summary

Daily Weather History Graph

Daily Weather History Graph

Search for Another Location

Airport:

Trip Planner

Search our weather history database for the weather conditions in past years. The results will help you decide how hot, cold, wet, or windy it might be!

Date:

Astronomy

Aug. 25, 2008 Rise Set
Actual Time 6:57 AM EDT 8:06 PM EDT
Civil Twilight 6:31 AM EDT 8:32 PM EDT
Nautical Twilight 5:59 AM EDT 9:03 PM EDT
Astronomical Twilight 5:27 AM EDT 9:36 PM EDT
Moon 12:56 AM EDT (8/25) 4:27 PM EDT (8/25)
Length of Visible Light 14h 01m
Length of Day
13h 08m
Waning Crescent, 31% of the Moon is Illuminated
Aug 25
Waning Crescent
Aug 30
New
Sep 7
First Quarter
Sep 15
Full
Sep 22
Last Quarter

Hourly Weather History & Observations

Time (EDT) Temp. Dew Point Humidity Pressure Visibility Wind Dir Wind Speed Gust Speed Precip Events Conditions
12:54 AM 71.1 °F 64.0 °F 78% 29.99 in 10.0 mi Calm Calm - N/A   Overcast
1:54 AM 71.1 °F 64.0 °F 78% 29.98 in 10.0 mi Calm Calm - N/A   Overcast
2:21 AM 71.6 °F 64.4 °F 78% 30.05 in 10.0 mi Calm Calm - N/A   Overcast
2:47 AM 69.8 °F 64.4 °F 83% 30.04 in 10.0 mi Calm Calm - N/A   Overcast
2:54 AM 70.0 °F 64.9 °F 84% 29.96 in 10.0 mi SE 3.5 mph - N/A   Overcast
3:54 AM 69.1 °F 64.0 °F 84% 29.95 in 10.0 mi Calm Calm - N/A   Clear
4:12 AM 68.0 °F 64.4 °F 88% 30.03 in 10.0 mi Calm Calm - N/A   Mostly Cloudy
4:21 AM 68.0 °F 64.4 °F 88% 30.02 in 9.0 mi South 6.9 mph - 0.00 in Rain Light Rain
4:54 AM 66.9 °F 64.9 °F 93% 29.95 in 10.0 mi Calm Calm - 0.01 in Rain Light Rain
5:42 AM 66.2 °F 66.2 °F 100% 30.03 in 10.0 mi Calm Calm - 0.00 in   Overcast
5:54 AM 68.0 °F 66.2 °F 94% 30.03 in 10.0 mi Calm Calm - N/A   Overcast
6:13 AM 68.0 °F 66.2 °F 94% 30.04 in 10.0 mi Calm Calm - N/A   Overcast
6:54 AM 66.9 °F 66.0 °F 97% - 10.0 mi Calm Calm - N/A   Mostly Cloudy
7:54 AM 68.0 °F 66.0 °F 93% 29.98 in 10.0 mi Calm Calm - 0.00 in Rain Light Rain
8:54 AM 68.0 °F 66.0 °F 93% 29.99 in 8.0 mi Calm Calm - 0.00 in Rain Light Rain
9:41 AM 68.0 °F 66.2 °F 94% 30.06 in 4.0 mi Calm Calm - 0.03 in Rain Light Rain
9:54 AM 68.0 °F 66.0 °F 93% 29.99 in 3.0 mi Calm Calm - 0.04 in Rain Rain
10:09 AM 68.0 °F 66.2 °F 94% 30.06 in 4.0 mi Calm Calm - 0.02 in Rain Light Rain
10:54 AM 68.0 °F 66.9 °F 96% 29.99 in 4.0 mi Calm Calm - 0.08 in Rain Rain
11:04 AM 68.0 °F 66.2 °F 94% 30.06 in 2.5 mi Calm Calm - 0.02 in Rain Rain
11:17 AM 68.0 °F 66.2 °F 94% 30.07 in 2.5 mi Calm Calm - 0.07 in Rain Rain
11:41 AM 68.0 °F 66.2 °F 94% 30.06 in 2.5 mi Calm Calm - 0.14 in Rain Rain
11:54 AM 68.0 °F 66.9 °F 96% 29.99 in 2.5 mi Calm Calm - 0.17 in Rain Rain
12:11 PM 68.0 °F 68.0 °F 100% 30.06 in 3.0 mi Calm Calm - 0.06 in Rain Rain
12:28 PM 68.0 °F 68.0 °F 100% 30.06 in 3.0 mi Calm Calm - 0.11 in Rain Rain
12:43 PM 69.8 °F 68.0 °F 94% 30.06 in 2.5 mi Calm Calm - 0.16 in Rain Rain
12:54 PM 69.1 °F 68.0 °F 96% 29.99 in 3.0 mi Calm Calm - 0.18 in Rain Rain
1:05 PM 69.8 °F 66.2 °F 88% 30.06 in 4.0 mi Calm Calm - 0.02 in Rain Rain
1:30 PM 69.8 °F 68.0 °F 94% 30.05 in 7.0 mi Calm Calm - 0.04 in Rain Light Rain
1:45 PM 69.8 °F 68.0 °F 94% 30.04 in 10.0 mi Calm Calm - 0.04 in Rain Light Rain
1:54 PM 71.1 °F 66.9 °F 87% 29.97 in 10.0 mi Calm Calm - 0.04 in Rain Light Rain
2:06 PM 69.8 °F 68.0 °F 94% 30.04 in 10.0 mi Calm Calm - 0.01 in Rain Light Rain
2:46 PM 71.6 °F 68.0 °F 88% 30.02 in 10.0 mi Calm Calm - 0.01 in   Mostly Cloudy
2:54 PM 72.0 °F 68.0 °F 87% 29.95 in 10.0 mi Calm Calm - 0.01 in   Mostly Cloudy
3:04 PM 73.4 °F 68.0 °F 83% 30.02 in 10.0 mi Calm Calm - N/A   Mostly Cloudy
3:26 PM 75.2 °F 68.0 °F 78% 30.01 in 10.0 mi Calm Calm - N/A   Partly Cloudy
3:54 PM 75.0 °F 66.0 °F 73% 29.92 in 10.0 mi Calm Calm - N/A   Scattered Clouds
4:54 PM 75.0 °F 66.9 °F 76% 29.92 in 10.0 mi Variable 5.8 mph - N/A   Clear
5:54 PM 75.0 °F 64.9 °F 71% 29.92 in 10.0 mi Variable 4.6 mph - N/A   Mostly Cloudy
6:54 PM 73.0 °F 66.9 °F 81% 29.92 in 10.0 mi SE 4.6 mph - 0.00 in   Clear
7:54 PM 72.0 °F 66.9 °F 84% 29.92 in 10.0 mi Calm Calm - 0.00 in Rain Light Rain
8:54 PM 70.0 °F 68.0 °F 93% 29.93 in 10.0 mi Calm Calm - 0.02 in Rain Light Rain
9:54 PM 70.0 °F 68.0 °F 93% 29.95 in 9.0 mi Calm Calm - 0.00 in Rain Light Rain
10:08 PM 69.8 °F 66.2 °F 88% 30.01 in 10.0 mi Calm Calm - 0.00 in Rain Light Rain
10:44 PM 68.0 °F 66.2 °F 94% 30.01 in 2.5 mi SSE 15.0 mph - 0.04 in Rain Heavy Rain
10:52 PM 68.0 °F 66.2 °F 94% 30.01 in 1.5 mi SE 9.2 mph - 0.27 in Rain Heavy Rain
10:54 PM 68.0 °F 66.0 °F 93% 29.94 in 2.0 mi SE 6.9 mph - 0.28 in Rain Heavy Rain
10:57 PM 68.0 °F 66.2 °F 94% 30.01 in 4.0 mi Variable 4.6 mph - 0.01 in Rain Rain
11:12 PM 68.0 °F 66.2 °F 94% 30.01 in 10.0 mi Calm Calm - 0.02 in Rain Light Rain
11:42 PM 68.0 °F 66.2 °F 94% 30.01 in 7.0 mi Calm Calm - 0.05 in Rain Light Rain
11:54 PM 68.0 °F 66.9 °F 96% 29.95 in 7.0 mi Calm Calm - 0.06 in Rain Light Rain